Dewpoint
46 45 46 45 46 47 47 46 47 49 51 51 48 47 47 49 50 50 49 48 49 51 52 51 51 53 47 51 46 50 54 46 42 46 47 52 51 50 49 49 49 49 48
42 46 46 48 46 47 48 47 48 47 49 48 47 46 46 47 49 48 47 47 46 47 48 50 49 44 50 52 52 52 50 48 45 47 49 50 50 50 49 49 47 42 47
44 46 45 46 47 47 48 47 48 46 46 47 47 46 46 47 46 47 48 48 48 47 46 48 50 51 51 50 53 53 53 48 50 48 48 51 51 50 47 49 50 53 49
44 45 45 48 49 48 47 46 47 48 46 46 45 46 47 46 46 47 48 47 49 48 50 50 50 49 49 49 50 50 50 50 50 50 50 51 50 49 46 46 46 50 50
43 46 47 48 49 49 49 49 48 48 47 46 46 46 47 44 43 47 49 49 49 48 50 50 50 51 50 50 48 52 51 51 50 51 52 49 44 45 47 48 48 44 47
47 46 48 48 48 48 49 49 50 49 48 49 48 48 48 44 46 47 49 49 48 48 48 49 49 50 50 50 49 49 49 50 51 53 52 50 50 52 47 48 49 48 46
46 46 47 47 47 48 48 48 48 48 48 48 48 49 49 48 46 46 48 49 48 49 50 50 49 49 51 50 50 49 49 48 49 52 50 48 48 49 50 51 51 53 52
45 46 46 48 47 48 49 49 50 51 51 49 49 49 49 47 46 45 47 49 50 50 51 51 51 50 50 50 52 49 48 48 49 48 52 52 50 50 50 50 52 55 56
45 46 48 47 47 49 49 50 51 51 50 50 50 50 50 48 45 44 48 50 50 51 50 50 51 46 46 45 50 49 47 47 46 48 48 47 46 46 46 46 46 46 42
46 47 48 48 49 48 48 48 49 49 48 47 49 50 48 48 43 44 45 49 51 48 48 49 46 46 44 43 50 52 48 48 51 51 51 52 49 51 48 51 49 47 46
47 48 48 48 50 50 51 51 50 50 51 51 51 52 51 50 48 43 43 50 48 48 39 40 43 43 43 44 42 50 48 44 48 52 53 53 52 51 50 52 56 56 46
48 48 48 49 48 50 53 54 53 53 51 51 52 53 49 51 45 44 44 44 47 52 46 44 45 43 43 43 43 44 42 43 51 52 45 48 44 46 52 48 56 55 54
47 47 49 49 49 51 50 47 43 48 49 47 49 51 51 43 46 45 44 46 47 48 44 45 45 43 42 43 43 43 43 46 50 50 47 47 45 48 52 51 55 55 58
49 48 49 49 52 49 45 39 38 38 42 44 44 43 41 39 38 39 42 48 47 46 48 47 45 43 43 44 42 41 41 41 41 40 41 41 44 42 41 41 41 44 43
50 48 52 48 48 46 43 41 37 38 34 34 36 39 35 36 34 36 36 36 39 40 40 43 40 38 38 38 38 38 38 39 39 39 39 39 37 38 37 44 39 38 38
51 46 44 45 46 43 44 41 38 38 38 37 35 31 30 32 36 36 36 35 35 36 40 39 38 38 37 37 37 37 37 38 37 38 39 38 37 37 35 35 34 35 33
51 52 51 49 42 43 42 43 41 38 39 37 34 33 33 32 34 34 35 35 35 35 37 37 36 37 37 37 37 37 37 35 43 37 37 37 36 35 33 32 32 32 30
51 45 44 43 41 42 38 37 35 36 35 35 34 32 30 31 31 33 34 35 32 32 31 32 34 35 36 37 37 37 37 35 36 36 36 36 36 33 32 30 29 31 28
42 39 46 44 42 40 36 35 34 35 34 30 27 32 33 31 32 33 35 34 32 31 29 27 30 32 34 35 37 38 44 34 35 35 35 34 33 30 29 28 27 28 27
49 44 42 42 35 34 34 33 33 34 33 32 26 26 34 35 35 34 29 28 27 27 29 28 27 30 31 33 34 35 36 33 34 33 33 32 30 29 26 26 25 24 26
46 45 41 36 34 34 34 34 34 33 32 31 32 27 28 32 34 30 26 25 25 25 28 27 24 27 27 30 31 31 30 30 31 31 30 29 29 26 26 26 24 24 25
42 37 34 33 34 33 34 34 32 30 29 28 29 29 29 32 33 30 26 26 24 25 25 27 24 26 27 28 29 29 27 26 30 30 30 27 26 25 25 24 24 24 24
37 35 34 34 34 35 35 31 28 26 26 26 25 24 26 32 33 33 25 25 25 25 25 26 26 26 28 29 29 26 24 25 28 27 31 27 25 25 25 24 23 23 25
40 38 37 35 32 32 30 32 30 28 24 21 25 25 28 32 35 35 28 25 24 24 25 26 27 26 29 27 26 23 25 27 30 28 32 28 26 25 24 24 23 24 25
41 40 37 38 37 35 34 32 30 29 26 24 23 24 26 31 34 35 30 24 23 23 24 25 27 27 27 28 26 26 29 30 31 30 30 30 27 27 24 23 24 23 25
41 41 41 40 42 37 35 33 32 31 28 25 24 24 26 29 32 35 28 25 23 22 23 24 25 26 25 25 26 29 30 30 30 30 29 26 25 25 23 24 24 22 24
Lifted_Index
5 5 6 6 6 6 6 6 6 5 4 3 3 3 2 2 1 1 1 1 1 1 1 0 0 1 1 1 1 2 2 2 3 3 3 4 4 5 5 6 6 6 6
5 5 6 6 7 6 6 7 6 5 4 3 3 3 3 2 1 1 1 1 1 1 1 1 1 1 1 1 2 2 2 3 3 3 4 4 4 5 6 6 5 5 5
5 6 6 7 7 7 7 7 7 6 5 4 4 3 3 3 2 2 1 2 2 2 2 2 2 2 2 2 2 2 3 3 4 4 4 4 5 5 6 5 5 5 5
6 6 7 7 7 7 7 7 6 6 5 5 4 4 3 3 3 3 2 2 2 2 2 2 2 3 3 3 3 3 4 4 4 4 4 4 5 5 5 5 5 5 5
6 6 7 7 7 6 6 6 6 6 5 5 5 4 4 5 5 5 4 3 3 3 3 3 3 4 4 4 4 4 4 4 4 4 3 4 4 4 5 5 5 5 5
6 6 6 6 6 6 6 6 6 5 5 5 5 5 5 5 6 6 5 4 4 4 4 3 4 4 4 5 5 5 5 5 4 3 3 3 4 4 4 4 4 4 4
6 6 6 6 6 6 6 6 6 6 5 5 5 5 5 5 6 6 5 5 5 4 4 4 4 4 5 5 5 5 5 5 5 4 3 3 4 4 4 4 4 4 4
6 6 6 6 6 6 6 5 5 5 5 5 5 5 5 5 5 5 5 5 5 4 4 4 4 5 5 5 4 4 4 5 5 4 4 4 5 5 5 4 4 3 3
6 6 5 5 5 5 5 5 5 5 5 5 5 5 5 6 6 5 5 5 5 4 5 5 5 6 6 5 5 4 4 4 5 4 4 5 5 5 5 5 4 4 4
5 5 5 5 5 5 5 5 5 5 5 5 5 5 5 6 6 6 6 5 5 5 5 6 7 7 7 6 5 5 5 5 4 4 4 4 4 4 4 4 3 3 3
5 5 5 5 4 5 5 5 5 5 5 4 4 4 5 5 6 7 6 6 5 5 6 6 7 7 7 6 6 5 5 4 4 3 3 3 3 3 3 2 2 2 2
5 5 5 4 4 4 4 5 5 5 5 5 4 5 5 5 6 7 7 6 5 5 6 6 6 6 6 5 5 5 5 4 3 3 3 3 3 3 3 2 2 1 1
5 5 4 4 4 4 5 6 6 6 5 5 5 5 6 6 7 7 6 6 6 5 5 6 6 6 5 5 5 5 5 4 4 3 3 3 3 3 3 3 3 2 1
4 4 4 4 4 5 6 7 8 8 8 7 7 7 7 8 8 7 7 7 6 6 6 6 6 6 6 6 6 6 5 5 5 4 4 4 4 4 4 4 4 4 3
4 4 5 5 5 6 7 8 9 10 10 9 9 9 9 9 9 9 9 8 8 7 6 6 6 6 6 6 6 6 6 6 6 5 5 5 5 5 5 5 5 5 5
4 5 5 5 5 6 7 7 9 10 11 11 11 12 12 12 12 12 11 10 9 8 7 7 7 7 7 7 7 7 7 7 7 6 6 6 6 6 6 6 6 6 7
4 5 5 6 6 6 6 7 8 9 10 11 12 13 13 13 13 13 12 11 10 9 8 8 8 8 8 7 7 7 8 8 7 7 7 7 7 7 7 7 7 8 8
5 5 6 6 6 6 7 7 8 8 9 10 12 13 13 12 12 12 12 11 11 10 10 10 9 9 8 8 8 8 8 8 8 8 8 8 8 8 8 8 8 9 10
6 6 6 6 6 7 7 8 8 8 9 10 12 12 12 11 11 11 11 11 11 11 11 11 11 10 9 9 9 9 9 9 9 9 9 9 9 9 9 9 9 10 10
5 6 6 6 7 7 8 8 8 8 9 10 12 12 11 10 10 11 12 12 13 12 12 12 11 11 10 10 10 10 10 10 10 10 10 10 10 10 10 10 10 10 10
5 6 6 7 7 8 8 8 8 9 9 10 11 12 12 11 10 11 12 13 13 13 13 13 12 12 12 11 11 11 11 11 11 11 11 10 11 11 10 10 10 10 11
5 6 7 7 8 8 8 9 9 9 10 10 11 11 11 11 11 11 13 14 14 14 14 13 13 13 13 13 13 13 13 13 13 12 11 11 11 11 11 11 11 11 11
6 6 6 7 8 8 8 9 9 10 11 11 11 11 11 11 10 11 13 14 14 14 14 14 14 14 14 14 14 15 15 16 15 14 12 12 12 12 12 11 11 11 11
5 6 6 7 7 8 8 9 10 10 11 12 12 12 11 11 10 11 12 14 14 14 14 14 14 14 15 15 16 16 17 17 16 15 13 12 12 12 12 12 12 12 12
5 5 5 6 6 7 8 8 9 10 11 12 12 12 11 11 10 11 12 13 14 14 14 15 15 15 16 17 17 18 18 18 17 15 14 13 13 13 13 12 12 12 12
4 5 5 5 5 6 7 8 9 10 11 11 12 12 12 11 10 11 12 13 14 14 15 15 15 16 16 17 18 18 18 18 17 16 14 14 13 13 13 13 12 12 12